Weather History for Georgetown, SC

Change the Weather History Date:

Wednesday, August 28, 2013

  Actual Average Record
Temperature  
Mean Temperature 78 °F -  
Max Temperature 89 °F 89 °F 89 °F (2011)
Min Temperature 68 °F 69 °F 62 °F (2014)
Cooling Degree Days 14    
Growing Degree Days 28 (Base 50)    
Moisture  
Dew Point 70 °F    
Average Humidity 79    
Maximum Humidity 100    
Minimum Humidity 52    
Precipitation  
Precipitation 0.00 in - - ()
Sea Level Pressure  
Sea Level Pressure 30.00 in    
Wind  
Wind Speed 5 mph (WSW)    
Max Wind Speed 9 mph    
Max Gust Speed -    
Visibility 10 miles    
Events      
Averages and records for this station are not official NWS values.
T = Trace of Precipitation, MM = Missing Value Source: NWS Daily Summary

Daily Weather History Graph

Daily Weather History Graph

Search for Another Location

Airport:

Trip Planner

Search our weather history database for the weather conditions in past years. The results will help you decide how hot, cold, wet, or windy it might be!

Date:

Astronomy

Aug. 28, 2013 Rise Set
Actual Time 6:48 AM EDT 7:47 PM EDT
Civil Twilight 6:23 AM EDT 8:12 PM EDT
Nautical Twilight 5:53 AM EDT 8:42 PM EDT
Astronomical Twilight 5:22 AM EDT 9:13 PM EDT
Moon 12:03 AM EDT (8/28) 2:14 PM EDT (8/28)
Length of Visible Light 13h 49m
Length of Day
12h 58m
Waning Gibbous, 47% of the Moon is Illuminated
Aug 28
Waning Gibbous
Sep 5
New
Sep 12
First Quarter
Sep 19
Full
Sep 26
Last Quarter

Hourly Weather History & Observations

Time (EDT) Temp. Heat Index Dew Point Humidity Pressure Visibility Wind Dir Wind Speed Gust Speed Precip Events Conditions
12:15 AM 69.8 °F - 66.2 °F 88% 30.05 in 10.0 mi SW 3.5 mph - N/A   Mostly Cloudy
12:35 AM 69.8 °F - 66.2 °F 88% 30.05 in 10.0 mi SW 4.6 mph - N/A   Overcast
12:55 AM 69.8 °F - 64.4 °F 83% 30.04 in 10.0 mi SW 4.6 mph - N/A   Mostly Cloudy
1:15 AM 69.8 °F - 64.4 °F 83% 30.04 in 10.0 mi SW 3.5 mph - N/A   Scattered Clouds
1:35 AM 69.8 °F - 64.4 °F 83% 30.04 in 10.0 mi SW 4.6 mph - N/A   Mostly Cloudy
1:55 AM 69.8 °F - 64.4 °F 83% 30.03 in 10.0 mi SW 5.8 mph - N/A   Overcast
2:15 AM 69.8 °F - 66.2 °F 88% 30.03 in 10.0 mi WSW 3.5 mph - N/A   Mostly Cloudy
2:35 AM 69.8 °F - 66.2 °F 88% 30.02 in 10.0 mi SW 3.5 mph - N/A   Scattered Clouds
2:55 AM 68.0 °F - 66.2 °F 94% 30.02 in 10.0 mi WSW 3.5 mph - N/A   Scattered Clouds
3:15 AM 68.0 °F - 68.0 °F 100% 30.02 in 10.0 mi WSW 3.5 mph - N/A   Scattered Clouds
3:35 AM 68.0 °F - 68.0 °F 100% 30.01 in 10.0 mi WSW 4.6 mph - N/A   Scattered Clouds
3:55 AM 68.0 °F - 68.0 °F 100% 30.01 in 10.0 mi SW 4.6 mph - N/A   Clear
4:15 AM 68.0 °F - 68.0 °F 100% 30.00 in 10.0 mi WSW 5.8 mph - N/A   Clear
4:35 AM 68.0 °F - 68.0 °F 100% 30.00 in 10.0 mi WSW 5.8 mph - N/A   Clear
4:55 AM 68.0 °F - 68.0 °F 100% 30.00 in 10.0 mi WSW 4.6 mph - N/A   Clear
5:15 AM 68.0 °F - 68.0 °F 100% 30.01 in 10.0 mi WSW 4.6 mph - N/A   Clear
5:35 AM 68.0 °F - 68.0 °F 100% 30.01 in 10.0 mi WSW 4.6 mph - N/A   Clear
5:55 AM 69.8 °F - 69.8 °F 100% 30.01 in 10.0 mi WSW 4.6 mph - N/A   Clear
6:15 AM 68.0 °F - 68.0 °F 100% 30.01 in 10.0 mi WSW 3.5 mph - N/A   Clear
6:35 AM 68.0 °F - 68.0 °F 100% 30.02 in 10.0 mi WSW 5.8 mph - N/A   Clear
6:55 AM 68.0 °F - 68.0 °F 100% 30.02 in 10.0 mi WSW 5.8 mph - N/A   Clear
7:15 AM 68.0 °F - 68.0 °F 100% 30.03 in 10.0 mi WSW 4.6 mph - N/A   Clear
7:35 AM 69.8 °F - 69.8 °F 100% 30.02 in 10.0 mi WSW 5.8 mph - N/A   Clear
7:55 AM 69.8 °F - 69.8 °F 100% 30.02 in 10.0 mi WSW 6.9 mph - N/A   Clear
8:15 AM 71.6 °F - 69.8 °F 94% 30.03 in 10.0 mi West 8.1 mph - N/A   Clear
8:35 AM 73.4 °F - 69.8 °F 88% 30.03 in 10.0 mi West 8.1 mph - N/A   Clear
8:55 AM 75.2 °F - 69.8 °F 83% 30.03 in 10.0 mi West 9.2 mph - N/A   Clear
9:15 AM 77.0 °F - 69.8 °F 78% 30.03 in 10.0 mi West 8.1 mph - N/A   Clear
9:35 AM 77.0 °F - 69.8 °F 78% 30.03 in 10.0 mi West 6.9 mph - N/A   Clear
9:55 AM 78.8 °F - 69.8 °F 74% 30.03 in 10.0 mi West 6.9 mph - N/A   Clear
10:15 AM 80.6 °F 83.9 °F 69.8 °F 70% 30.03 in 10.0 mi West 6.9 mph - N/A   Clear
10:35 AM 80.6 °F 84.6 °F 71.6 °F 74% 30.03 in 10.0 mi West 5.8 mph - N/A   Clear
10:55 AM 82.4 °F 87.2 °F 71.6 °F 70% 30.03 in 10.0 mi West 4.6 mph - N/A   Clear
11:15 AM 82.4 °F 87.2 °F 71.6 °F 70% 30.03 in 10.0 mi West 5.8 mph - N/A   Clear
11:35 AM 86.0 °F 91.8 °F 71.6 °F 62% 30.03 in 10.0 mi West 6.9 mph - N/A   Clear
11:55 AM 86.0 °F 91.8 °F 71.6 °F 62% 30.03 in 10.0 mi West 5.8 mph - N/A   Clear
12:15 PM 86.0 °F 91.8 °F 71.6 °F 62% 30.02 in 10.0 mi WSW 6.9 mph - N/A   Clear
12:35 PM 86.0 °F 91.8 °F 71.6 °F 62% 30.03 in 10.0 mi WNW 4.6 mph - N/A   Clear
12:55 PM 87.8 °F 93.8 °F 71.6 °F 58% 30.03 in 10.0 mi WNW 6.9 mph - N/A   Clear
1:15 PM 87.8 °F 93.8 °F 71.6 °F 58% 30.02 in 10.0 mi WSW 6.9 mph - N/A   Clear
1:35 PM 87.8 °F 93.8 °F 71.6 °F 58% 30.02 in 10.0 mi West 5.8 mph - N/A   Clear
1:55 PM 89.6 °F 94.7 °F 69.8 °F 52% 30.02 in 10.0 mi West 6.9 mph - N/A   Clear
2:15 PM 87.8 °F 92.6 °F 69.8 °F 55% 30.01 in 10.0 mi West 8.1 mph - N/A   Scattered Clouds
2:35 PM 87.8 °F 92.6 °F 69.8 °F 55% 30.01 in 10.0 mi West 9.2 mph - N/A   Scattered Clouds
2:55 PM 87.8 °F 92.6 °F 69.8 °F 55% 30.00 in 10.0 mi WSW 5.8 mph - N/A   Scattered Clouds
3:15 PM 87.8 °F 93.8 °F 71.6 °F 58% 30.00 in 10.0 mi West 5.8 mph - N/A   Clear
3:35 PM 89.6 °F 94.7 °F 69.8 °F 52% 29.99 in 10.0 mi WSW 9.2 mph - N/A   Clear
3:55 PM 87.8 °F 92.6 °F 69.8 °F 55% 29.98 in 10.0 mi West 9.2 mph - N/A   Clear
4:15 PM 89.6 °F 94.7 °F 69.8 °F 52% 29.98 in 10.0 mi WSW 8.1 mph - N/A   Clear
4:35 PM 89.6 °F 94.7 °F 69.8 °F 52% 29.97 in 10.0 mi West 5.8 mph - N/A   Clear
4:55 PM 89.6 °F 94.7 °F 69.8 °F 52% 29.97 in 10.0 mi West 5.8 mph - N/A   Clear
5:15 PM 89.6 °F 94.7 °F 69.8 °F 52% 29.96 in 10.0 mi West 8.1 mph - N/A   Clear
5:35 PM 87.8 °F 92.6 °F 69.8 °F 55% 29.95 in 10.0 mi West 6.9 mph - N/A   Clear
5:55 PM 87.8 °F 92.6 °F 69.8 °F 55% 29.95 in 10.0 mi SSW 5.8 mph - N/A   Clear
6:15 PM 82.4 °F 88.2 °F 73.4 °F 74% 29.95 in 10.0 mi SSW 8.1 mph - N/A   Clear
6:35 PM 82.4 °F 88.2 °F 73.4 °F 74% 29.96 in 10.0 mi SSW 4.6 mph - N/A   Clear
6:55 PM 80.6 °F 85.4 °F 73.4 °F 79% 29.96 in 10.0 mi South 5.8 mph - N/A   Clear
7:15 PM 80.6 °F 85.4 °F 73.4 °F 79% 29.96 in 10.0 mi SSW 6.9 mph - N/A   Clear
7:35 PM 78.8 °F - 71.6 °F 78% 29.96 in 10.0 mi SSW 4.6 mph - N/A   Clear
7:55 PM 78.8 °F - 71.6 °F 78% 29.97 in 10.0 mi SSW 4.6 mph - N/A   Clear
8:15 PM 77.0 °F - 71.6 °F 83% 29.97 in 10.0 mi SSW 4.6 mph - N/A   Clear
8:35 PM 77.0 °F - 73.4 °F 89% 29.98 in 10.0 mi SSW 4.6 mph - N/A   Clear
8:55 PM 77.0 °F - 73.4 °F 89% 29.98 in 10.0 mi SSW 4.6 mph - N/A   Clear
9:15 PM 75.2 °F - 73.4 °F 94% 29.98 in 10.0 mi SW 3.5 mph - N/A   Clear
9:35 PM 75.2 °F - 73.4 °F 94% 29.98 in 10.0 mi SSW 4.6 mph - N/A   Clear
9:55 PM 75.2 °F - 73.4 °F 94% 29.98 in 10.0 mi SSW 5.8 mph - N/A   Clear
10:15 PM 75.2 °F - 71.6 °F 89% 29.99 in 10.0 mi SW 5.8 mph - N/A   Clear
10:35 PM 75.2 °F - 71.6 °F 89% 29.99 in 10.0 mi SW 5.8 mph - N/A   Clear
10:55 PM 77.0 °F - 71.6 °F 83% 29.98 in 10.0 mi SW 8.1 mph - N/A   Clear
11:15 PM 77.0 °F - 71.6 °F 83% 29.99 in 10.0 mi SW 6.9 mph - N/A   Clear
11:35 PM 75.2 °F - 71.6 °F 89% 29.99 in 10.0 mi SW 6.9 mph - N/A   Clear
11:55 PM 75.2 °F - 71.6 °F 89% 29.98 in 10.0 mi SW 6.9 mph - N/A   Clear